#timestamp,LO_Frequency,Hit,StdDev 
1657533615.1,286047001.0,N
1657533635.8,286047000.1,N
1657533655.7,286047000.4,N
1657533675.5,286047000.3,N
1657533695.4,286047002.5,N
1657533715.2,286047002.6,N
1657533735.0,286047002.5,N
1657533735.9,286047002.5,N
1657533755.8,286047002.2,N
1657533775.6,286047002.3,N
1657533795.4,286046999.7,N
1657533815.3,286047000.3,N
1657533835.1,286047000.5,N
1657533855.9,286047000.3,N
1657533875.7,286047000.1,N
1657533895.5,286046999.7,N
1657533915.4,286047002.2,N
1657533935.2,286047002.7,N
1657533955.0,286047000.3,N
1657533956.0,286047000.3,N
1657533975.8,286047000.9,N
1657533995.6,286047001.1,N
1657534015.5,286047000.1,N
1657534035.3,286047002.7,N
1657534055.1,286047002.8,N
1657534075.9,286046999.8,N
1657534095.7,286046999.7,N
1657534115.5,286047000.4,N
1657534135.4,286047000.6,N
1657534155.2,286047000.6,N
1657534175.1,286047001.1,N
1657534176.0,286047001.1,N
1657534195.8,286046998.6,N
1657534215.6,286046999.0,N
1657534235.5,286046998.4,N
1657534255.3,286046998.9,N
1657534275.2,286046998.6,N
1657534295.9,286046998.7,N
1657534315.7,286046996.6,N
1657534335.6,286046998.8,N
1657534355.4,286046998.9,N
1657534375.2,286046998.3,N
1657534395.1,286046998.2,N
1657534396.0,286046998.2,N
1657534415.8,286047000.8,N
1657534435.7,286047000.9,N
1657534455.5,286047002.4,N
1657534475.3,286047002.8,N
1657534495.2,286047002.5,N
1657534515.0,286047002.6,N
1657534515.9,286047002.6,N
1657534535.7,286047004.2,N
1657534555.6,286047004.0,N
1657534575.4,286047001.3,N
1657534595.3,286047002.1,N
1657534615.1,286047002.7,N
1657534616.0,286047002.7,N
1657534635.8,286047002.0,N
1657534655.7,286047002.8,N
1657534675.5,286047001.9,N
1657534695.3,286047002.1,N
1657534715.2,286047002.6,N
1657534735.0,286047002.4,N
1657534735.9,286047002.4,N
1657534755.8,286047001.5,N
1657534775.6,286047002.2,N
1657534795.4,286047002.3,N
1657534815.3,286047001.3,N
1657534835.1,286047001.3,N
1657534855.8,286047001.3,N
1657534875.7,286047002.8,N
1657534895.5,286047002.3,N
1657534915.4,286047001.3,N
1657534935.2,286047001.8,N
1657534955.0,286047004.4,Y
1657534955.9,286047004.4,P
1657534975.8,286047000.7,N
1657534995.6,286047000.3,N
1657535015.4,286046999.8,N
1657535035.3,286046999.9,N
1657535055.1,286047000.2,N
1657535075.9,286046998.1,N
1657535095.7,286046998.5,N
1657535115.5,286046998.6,N
1657535135.4,286047001.1,N
1657535155.2,286047001.2,N
1657535175.0,286047000.7,N
1657535175.9,286047000.7,N
1657535195.8,286046998.6,N
1657535215.6,286046998.2,N
1657535235.5,286047000.4,N
1657535255.3,286047000.0,N
1657535275.1,286047001.1,N
1657535295.9,286047000.0,N
1657535315.7,286047000.9,N
1657535335.5,286047000.8,N
1657535355.4,286047001.0,N
1657535375.2,286047002.5,N
1657535395.1,286047002.2,N
1657535396.0,286047002.2,N
1657535415.8,286046999.8,N
1657535435.6,286047000.2,N
1657535455.5,286047000.3,N
1657535475.3,286047001.1,N
1657535495.1,286046998.1,N
1657535515.9,286047001.0,N
1657535535.7,286046998.3,N
1657535555.6,286047000.5,N
1657535575.4,286047001.2,N
1657535595.2,286046999.6,N
1657535615.1,286046997.3,N
1657535616.0,286046997.3,N
1657535635.8,286046996.6,N
1657535655.6,286046997.1,N
1657535675.5,286046995.7,N
1657535695.3,286046995.0,N
1657535715.2,286046997.9,N
1657535735.9,286047000.2,N
1657535755.7,286046998.3,N
1657535775.6,286046995.6,N
1657535795.4,286046993.3,Y
1657535815.2,286046995.2,P
1657535835.1,286046995.1,N
1657535836.0,286046995.1,N
1657535855.8,286046994.9,N
1657535875.7,286046995.3,N
1657535895.5,286046996.8,N
1657535915.3,286046995.6,N
1657535935.2,286046995.1,Y
1657535955.0,286046998.9,P
1657535955.9,286046998.9,N
1657535975.7,286046999.0,N
1657535995.6,286046999.0,N
1657536015.4,286046999.3,N
1657536035.3,286046999.3,N
1657536055.1,286046998.6,N
1657536056.0,286046998.6,N
1657536075.8,286046998.1,N
1657536095.7,286047000.9,N
1657536115.5,286047000.0,N
1657536135.3,286047000.4,N
1657536155.2,286047000.2,N
1657536175.0,286047000.0,N
1657536175.9,286047000.0,N
1657536195.8,286047000.5,N
1657536215.6,286047000.5,N
1657536235.4,286046998.9,N
1657536255.3,286046996.6,Y
1657536275.1,286046998.6,P
1657536295.8,286046998.3,P
1657536315.7,286046998.4,P
1657536335.5,286047000.3,N
1657536355.4,286047000.1,N
1657536375.2,286047002.6,Y
1657536395.0,286047003.5,P
1657536395.9,286047003.5,N
1657536415.8,286047005.9,N
1657536435.6,286047006.0,N
1657536455.5,286047005.2,N
1657536475.3,286047005.7,N
1657536495.1,286047004.9,N
1657536515.9,286047005.7,N
1657536535.7,286047005.4,N
1657536555.5,286047005.4,N
1657536575.4,286047005.4,N
1657536595.2,286047007.4,Y
1657536615.1,286047001.8,P
1657536616.0,286047001.8,N
1657536635.8,286047004.3,P
1657536655.6,286047001.6,N
1657536675.5,286047001.7,N
1657536695.3,286047004.1,Y
1657536715.1,286047000.1,P
1657536735.9,286047002.7,N
1657536755.7,286047002.0,N
1657536775.6,286047001.9,N
1657536795.4,286047001.4,N
1657536815.2,286047001.6,N
1657536835.1,286047002.0,N
1657536836.0,286047002.0,N
1657536855.8,286047004.3,Y
1657536875.6,286047002.3,P
1657536895.5,286047002.5,P
1657536915.3,286046999.7,N
1657536935.2,286047000.9,N
1657536955.9,286047002.4,N
1657536975.7,286047002.1,N
1657536995.6,286046999.8,N
1657537015.4,286047002.4,N
1657537035.2,286047002.7,N
1657537055.1,286047002.1,N
1657537056.0,286047002.1,N
1657537075.8,286046999.8,N
1657537095.7,286047000.2,N
1657537115.5,286046999.8,N
1657537135.3,286047000.1,N
1657537155.2,286047000.7,N
1657537175.0,286047000.7,N
1657537175.9,286047000.7,N
1657537195.7,286046998.8,N
